Météo par heure à Jutaí

Ce jour, 20 Juin, Dimanche

Heure Température Précipitation Vent Pression Humidité
00:00 +22°C° 0.1 mm 0 m/s 752 mmHg 98%
01:00 +22°C° 0.1 mm 0 m/s 751 mmHg 99%
02:00 +21°C° 0 mm 0 m/s 751 mmHg 99%
03:00 +23°C° 0 mm 1 m/s 751 mmHg 99%
04:00 +23°C° 0 mm 1 m/s 751 mmHg 99%
05:00 +23°C° 0 mm 1 m/s 752 mmHg 98%
06:00 +24°C° 0 mm 1 m/s 752 mmHg 97%
07:00 +24°C° 0 mm 1 m/s 752 mmHg 96%
08:00 +26°C° 0 mm 1 m/s 753 mmHg 84%
09:00 +29°C° 0 mm 1 m/s 753 mmHg 73%
10:00 +31°C° 0 mm 2 m/s 753 mmHg 61%
11:00 +31°C° 0.6 mm 2 m/s 752 mmHg 63%
12:00 +31°C° 0.6 mm 2 m/s 751 mmHg 65%
13:00 +31°C° 0.6 mm 2 m/s 750 mmHg 67%
14:00 +31°C° 0.6 mm 1 m/s 750 mmHg 70%
15:00 +30°C° 0.6 mm 1 m/s 749 mmHg 74%
16:00 +30°C° 0.6 mm 1 m/s 749 mmHg 77%
17:00 +28°C° 0.7 mm 1 m/s 750 mmHg 84%
18:00 +26°C° 0.7 mm 1 m/s 750 mmHg 91%
19:00 +25°C° 0.7 mm 1 m/s 751 mmHg 97%
20:00 +25°C° 0.1 mm 1 m/s 751 mmHg 98%
21:00 +24°C° 0.1 mm 1 m/s 751 mmHg 98%
22:00 +24°C° 0.1 mm 1 m/s 752 mmHg 98%
23:00 +24°C° 0.1 mm 1 m/s 751 mmHg 98%

Demain, 21 Juin, Lundi

Heure Température Précipitation Vent Pression Humidité
00:00 +24°C° 0.1 mm 1 m/s 751 mmHg 98%
01:00 +24°C° 0.1 mm 1 m/s 751 mmHg 98%
02:00 +22°C° 0.6 mm 0 m/s 751 mmHg 98%
03:00 +22°C° 0.6 mm 0 m/s 751 mmHg 98%
04:00 +22°C° 0.6 mm 0 m/s 751 mmHg 99%
05:00 +22°C° 0.1 mm 0 m/s 751 mmHg 98%
06:00 +22°C° 0.1 mm 0 m/s 752 mmHg 98%
07:00 +23°C° 0.1 mm 0 m/s 752 mmHg 98%
08:00 +25°C° 0 mm 0 m/s 752 mmHg 86%
09:00 +29°C° 0 mm 1 m/s 752 mmHg 75%
10:00 +31°C° 0 mm 1 m/s 752 mmHg 64%
11:00 +32°C° 0 mm 1 m/s 752 mmHg 58%
12:00 +34°C° 0 mm 1 m/s 751 mmHg 52%
13:00 +35°C° 0 mm 1 m/s 750 mmHg 45%
14:00 +33°C° 0 mm 1 m/s 749 mmHg 53%
15:00 +32°C° 0 mm 1 m/s 749 mmHg 60%
16:00 +28°C° 0 mm 0 m/s 748 mmHg 67%
17:00 +27°C° 0 mm 0 m/s 748 mmHg 69%
18:00 +27°C° 0 mm 0 m/s 749 mmHg 72%
19:00 +26°C° 0 mm 0 m/s 749 mmHg 74%
20:00 +26°C° 0 mm 0 m/s 750 mmHg 76%
21:00 +25°C° 0 mm 0 m/s 750 mmHg 77%
22:00 +25°C° 0 mm 0 m/s 751 mmHg 79%
23:00 +24°C° 0 mm 0 m/s 751 mmHg 81%

Après-demain, 22 Juin, Mardi

Heure Température Précipitation Vent Pression Humidité
00:00 +24°C° 0 mm 0 m/s 750 mmHg 83%
01:00 +24°C° 0 mm 0 m/s 750 mmHg 85%
02:00 +23°C° 0.3 mm 0 m/s 750 mmHg 88%
03:00 +23°C° 0.3 mm 0 m/s 750 mmHg 91%
04:00 +22°C° 0.3 mm 0 m/s 750 mmHg 94%
05:00 +23°C° 0.5 mm 0 m/s 751 mmHg 95%
06:00 +23°C° 0.5 mm 0 m/s 751 mmHg 95%
07:00 +23°C° 0.5 mm 0 m/s 752 mmHg 96%
08:00 +24°C° 0.6 mm 0 m/s 752 mmHg 92%
09:00 +26°C° 0.6 mm 0 m/s 752 mmHg 88%
10:00 +27°C° 0.6 mm 0 m/s 752 mmHg 83%
11:00 +29°C° 0.4 mm 0 m/s 751 mmHg 73%
12:00 +30°C° 0.4 mm 0 m/s 751 mmHg 63%
13:00 +33°C° 0.4 mm 1 m/s 750 mmHg 53%
14:00 +31°C° 0 mm 0 m/s 750 mmHg 54%
15:00 +31°C° 0 mm 0 m/s 749 mmHg 54%
16:00 +31°C° 0 mm 0 m/s 748 mmHg 55%
17:00 +29°C° 0.1 mm 0 m/s 749 mmHg 64%
18:00 +26°C° 0.1 mm 0 m/s 749 mmHg 74%
19:00 +24°C° 0.1 mm 0 m/s 749 mmHg 83%
20:00 +24°C° 0.1 mm 0 m/s 750 mmHg 87%
21:00 +23°C° 0.1 mm 0 m/s 750 mmHg 90%
22:00 +24°C° 0.1 mm 1 m/s 751 mmHg 94%
23:00 +24°C° 0.3 mm 1 m/s 751 mmHg 95%

23 Juin, Mercredi

Heure Température Précipitation Vent Pression Humidité
00:00 +22°C° 0.3 mm 0 m/s 751 mmHg 97%
01:00 +21°C° 0.3 mm 0 m/s 750 mmHg 98%
02:00 +21°C° 0 mm 0 m/s 750 mmHg 98%
03:00 +21°C° 0 mm 0 m/s 750 mmHg 98%
04:00 +21°C° 0 mm 0 m/s 750 mmHg 98%
05:00 +22°C° 0 mm 0 m/s 751 mmHg 97%
06:00 +22°C° 0 mm 0 m/s 751 mmHg 96%
07:00 +22°C° 0 mm 0 m/s 752 mmHg 95%
08:00 +25°C° 0 mm 0 m/s 752 mmHg 83%
09:00 +28°C° 0 mm 0 m/s 752 mmHg 70%
10:00 +31°C° 0 mm 0 m/s 752 mmHg 57%
11:00 +32°C° 0 mm 0 m/s 752 mmHg 53%
12:00 +33°C° 0 mm 0 m/s 751 mmHg 48%
13:00 +33°C° 0 mm 0 m/s 750 mmHg 44%
14:00 +31°C° 0 mm 0 m/s 749 mmHg 53%
15:00 +30°C° 0 mm 0 m/s 749 mmHg 63%
16:00 +28°C° 0 mm 0 m/s 749 mmHg 72%
17:00 +26°C° 0 mm 0 m/s 749 mmHg 76%
18:00 +25°C° 0 mm 0 m/s 749 mmHg 80%
19:00 +24°C° 0 mm 0 m/s 749 mmHg 84%
20:00 +24°C° 0 mm 0 m/s 749 mmHg 84%
21:00 +24°C° 0 mm 0 m/s 750 mmHg 84%
22:00 +26°C° 0 mm 1 m/s 750 mmHg 84%
23:00 +24°C° 0 mm 0 m/s 750 mmHg 86%

24 Juin, Jeudi

Heure Température Précipitation Vent Pression Humidité
00:00 +23°C° 0 mm 0 m/s 749 mmHg 87%
01:00 +23°C° 0 mm 0 m/s 749 mmHg 89%
02:00 +22°C° 0 mm 0 m/s 749 mmHg 90%
03:00 +22°C° 0 mm 0 m/s 749 mmHg 92%
04:00 +22°C° 0 mm 0 m/s 749 mmHg 94%
05:00 +22°C° 0 mm 0 m/s 750 mmHg 91%
06:00 +23°C° 0 mm 0 m/s 750 mmHg 88%
07:00 +24°C° 0 mm 0 m/s 751 mmHg 85%
08:00 +26°C° 0 mm 0 m/s 751 mmHg 75%
09:00 +29°C° 0 mm 0 m/s 751 mmHg 65%
10:00 +31°C° 0 mm 0 m/s 751 mmHg 55%
11:00 +31°C° 0.2 mm 0 m/s 751 mmHg 55%
12:00 +33°C° 0.2 mm 1 m/s 750 mmHg 56%
13:00 +33°C° 0.2 mm 1 m/s 749 mmHg 57%
14:00 +31°C° 0.3 mm 1 m/s 749 mmHg 67%
15:00 +29°C° 0.3 mm 1 m/s 748 mmHg 76%
16:00 +27°C° 0.3 mm 1 m/s 748 mmHg 86%
17:00 +27°C° 0.1 mm 1 m/s 748 mmHg 88%
18:00 +24°C° 0.1 mm 0 m/s 749 mmHg 91%
19:00 +23°C° 0.1 mm 0 m/s 749 mmHg 93%
20:00 +23°C° 0 mm 0 m/s 749 mmHg 93%
21:00 +23°C° 0 mm 0 m/s 750 mmHg 94%
22:00 +23°C° 0 mm 0 m/s 750 mmHg 95%
23:00 +22°C° 0 mm 0 m/s 750 mmHg 95%

25 Juin, Vendredi

Heure Température Précipitation Vent Pression Humidité
00:00 +22°C° 0 mm 0 m/s 749 mmHg 95%
01:00 +22°C° 0 mm 0 m/s 749 mmHg 96%
02:00 +22°C° 0 mm 0 m/s 749 mmHg 96%
03:00 +22°C° 0 mm 0 m/s 749 mmHg 96%
04:00 +21°C° 0 mm 0 m/s 749 mmHg 97%
05:00 +22°C° 0 mm 0 m/s 750 mmHg 94%
06:00 +23°C° 0 mm 0 m/s 750 mmHg 92%
07:00 +23°C° 0 mm 0 m/s 750 mmHg 90%
08:00 +26°C° 0.1 mm 0 m/s 751 mmHg 80%
09:00 +28°C° 0.1 mm 0 m/s 751 mmHg 71%
10:00 +30°C° 0.1 mm 0 m/s 751 mmHg 61%
11:00 +31°C° 0.2 mm 0 m/s 750 mmHg 58%
12:00 +31°C° 0.2 mm 0 m/s 750 mmHg 55%
13:00 +32°C° 0.2 mm 0 m/s 749 mmHg 52%
14:00 +30°C° 0.1 mm 0 m/s 748 mmHg 59%
15:00 +31°C° 0.1 mm 1 m/s 748 mmHg 67%
16:00 +29°C° 0.1 mm 1 m/s 747 mmHg 74%
17:00 +26°C° 0.5 mm 0 m/s 748 mmHg 80%
18:00 +25°C° 0.5 mm 0 m/s 748 mmHg 85%
19:00 +23°C° 0.5 mm 0 m/s 748 mmHg 91%
20:00 +23°C° 0.1 mm 0 m/s 749 mmHg 92%
21:00 +23°C° 0.1 mm 0 m/s 749 mmHg 93%
22:00 +22°C° 0.1 mm 0 m/s 749 mmHg 94%
23:00 +22°C° 0.2 mm 0 m/s 749 mmHg 95%
Voir plus

Nous avons besoin de votre consentement

Meteoprog et ses fournisseurs de services peuvent stocker et accéder à des données personnelles telles que des cookies, des identifiants d'appareils ou d'autres technologies similaires sur votre appareil et traiter ces données pour personnaliser le contenu et les publicités, ainsi que pour fournir des fonctionnalités de médias sociaux et analyser le trafic.

  • Stocker et/ou accéder à des informations sur votre appareil

    Des cookies, des identifiants d'appareils ou d'autres informations peuvent être stockés ou accessibles sur votre appareil aux fins indiquées ci-dessus.

  • Annonces et contenus personnalisés, mesure des annonces et des contenus, connaissance de l'audience et développement de produits

    Les annonces et le contenu peuvent être personnalisés en fonction d'un profil. D'autres données peuvent être ajoutées pour mieux personnaliser les annonces et le contenu. Les performances des publicités et du contenu peuvent être mesurées. Il est possible d'obtenir des informations sur le public qui a vu les publicités et le contenu. Ces données peuvent être utilisées pour développer ou améliorer l'expérience de l'utilisateur, les systèmes et les logiciels.

En cliquant sur "J'accepte", vous autorisez l'utilisation de cookies, des identifiants d'appareils, des balises web ou d'autres technologies similaires. Vos paramètres peuvent être modifiés dans le navigateur de votre appareil.

Dans certains cas, des intérêts légitimes peuvent être invoqués plutôt qu'un consentement. Vous pouvez en savoir plus à ce sujet dans notre Politique de confidentialité et de cookies.